Wetterdaten am Flugplatz MSG Übersee

alte Datensätze gelöscht
47 aktuelle Wetterdateneinträge gefunden

Datum/Uhrzeit   Windrichtung/Grad    Geschw./kmh    Temp./C°    Luftdruck/mbar    Spannung/Volt   
2026-05-03 00:05 SO/151 1 13 1020 12,60
2026-05-03 00:15 SO/156 3 13 1020 12,61
2026-05-03 00:25 SO/157 3 12 1020 12,54
2026-05-03 00:35 SO/157 1 12 1020 12,55
2026-05-03 00:45 S/182 3 12 1020 12,61
2026-05-03 00:55 SW/203 2 11 1020 12,54
2026-05-03 01:05 SW/207 4 11 1020 12,57
2026-05-03 01:15 SW/208 3 11 1020 12,52
2026-05-03 01:25 SW/208 4 11 1020 12,57
2026-05-03 01:35 SW/208 3 11 1020 12,52
2026-05-03 01:45 SW/208 2 10 1020 12,54
2026-05-03 01:55 SW/208 1 10 1020 12,54
2026-05-03 02:05 SW/208 1 10 1020 12,54
2026-05-03 02:16 SW/208 1 10 1020 12,54
2026-05-03 02:26 SW/208 2 9 1019 12,52
2026-05-03 02:36 SW/208 4 9 1019 12,32
2026-05-03 02:46 SW/208 2 9 1019 12,51
2026-05-03 02:56 SW/208 3 9 1019 12,57
2026-05-03 03:06 SW/208 3 9 1019 12,52
2026-05-03 03:16 SW/208 4 9 1019 12,51
2026-05-03 03:26 SW/208 5 9 1019 12,51
2026-05-03 03:36 SW/208 4 9 1019 12,51
2026-05-03 03:46 NW/305 6 8 1019 12,51
2026-05-03 03:56 N/339 5 8 1019 12,48
2026-05-03 04:06 S/177 14 8 1019 12,49
2026-05-03 04:16 S/182 20 9 1019 12,48
2026-05-03 04:26 SW/210 16 10 1019 12,48
2026-05-03 04:36 W/253 9 10 1019 12,18
2026-05-03 04:46 W/254 5 10 1019 12,46
2026-05-03 04:56 S/165 5 10 1019 12,45
2026-05-03 05:07 S/199 5 10 1019 12,43
2026-05-03 05:17 NW/306 5 10 1019 12,43
2026-05-03 05:27 N/347 6 10 1019 12,46
2026-05-03 05:37 N/356 6 10 1019 12,45
2026-05-03 05:47 N/357 6 10 1019 12,45
2026-05-03 05:57 N/358 5 10 1019 12,45
2026-05-03 06:07 N/358 4 10 1019 12,43
2026-05-03 06:17 N/358 5 10 1019 12,43
2026-05-03 06:27 N/358 1 10 1019 12,45
2026-05-03 06:37 N/358 1 10 1019 12,17
2026-05-03 06:47 N/358 1 10 1019 12,45
2026-05-03 06:57 N/358 1 10 1019 12,45
2026-05-03 07:07 N/358 3 10 1019 12,46
2026-05-03 07:17 N/358 2 10 1019 12,49
2026-05-03 07:27 N/358 3 11 1019 12,52
2026-05-03 07:37 N/358 4 12 1019 12,52
2026-05-03 07:48 N/358 5 13 1019 12,57